BVN943 KMEM-KHSV

Flight info

Callsign BVN943
Flight time 1h 0m
Altitude 7000
Route BBKNG7 KERMI
Aircraft C208/L-SDFGR/C

Departure

Time 2026-04-24 13:39
Airport Memphis International Airport (KMEM)

Arrival

Time 2026-04-24 14:40
Airport Huntsville International Airport (KHSV)
Time Latitude Longitude Altitude Speed Heading
2026-04-24 13:13 35.06654 -89.98223 329 ft 0 kts
2026-04-24 13:35 35.06658 -89.98218 318 ft 3 kts 91°
2026-04-24 13:35 35.06602 -89.98206 327 ft 13 kts 185°
2026-04-24 13:35 35.06491 -89.98245 329 ft 21 kts 183°
2026-04-24 13:36 35.06368 -89.98249 329 ft 19 kts 183°
2026-04-24 13:36 35.06247 -89.98254 329 ft 16 kts 183°
2026-04-24 13:36 35.06120 -89.98259 329 ft 15 kts 182°
2026-04-24 13:36 35.06017 -89.98245 329 ft 18 kts 149°
2026-04-24 13:37 35.05950 -89.98170 329 ft 0 kts 126°
2026-04-24 13:37 35.05946 -89.98164 327 ft 5 kts 129°
2026-04-24 13:37 35.05890 -89.98090 330 ft 17 kts 139°
2026-04-24 13:38 35.05846 -89.98042 330 ft 0 kts 94°
2026-04-24 13:38 35.05845 -89.97946 331 ft 32 kts 91°
2026-04-24 13:38 35.05830 -89.97440 330 ft 86 kts 92°
2026-04-24 13:39 35.05835 -89.96612 463 ft 106 kts 95°
2026-04-24 13:39 35.05814 -89.95662 639 ft 120 kts 96°
2026-04-24 13:39 35.05817 -89.94624 911 ft 127 kts 94°
2026-04-24 13:39 35.05875 -89.93494 1088 ft 138 kts 88°
2026-04-24 13:40 35.05944 -89.92285 1269 ft 145 kts 92°
2026-04-24 13:40 35.06008 -89.91042 1463 ft 150 kts 92°
2026-04-24 13:40 35.06097 -89.89736 1645 ft 158 kts 92°
2026-04-24 13:40 35.06196 -89.88386 1822 ft 159 kts 95°
2026-04-24 13:41 35.05940 -89.87163 1988 ft 145 kts 127°
2026-04-24 13:41 35.05575 -89.85994 2165 ft 150 kts 117°
2026-04-24 13:41 35.05289 -89.84763 2341 ft 152 kts 115°
2026-04-24 13:41 35.05014 -89.83511 2509 ft 154 kts 115°
2026-04-24 13:42 35.04741 -89.82239 2686 ft 156 kts 114°
2026-04-24 13:42 35.04465 -89.80958 2858 ft 157 kts 114°
2026-04-24 13:42 35.04190 -89.79668 3030 ft 157 kts 114°
2026-04-24 13:42 35.03914 -89.78379 3201 ft 156 kts 114°
2026-04-24 13:43 35.03637 -89.77097 3372 ft 156 kts 114°
2026-04-24 13:43 35.03361 -89.75811 3546 ft 157 kts 113°
2026-04-24 13:43 35.03083 -89.74519 3718 ft 157 kts 115°
2026-04-24 13:43 35.02784 -89.73230 3892 ft 158 kts 115°
2026-04-24 13:44 35.02501 -89.71933 4068 ft 158 kts 114°
2026-04-24 13:44 35.02222 -89.70629 4255 ft 160 kts 113°
2026-04-24 13:44 35.01931 -89.69294 4428 ft 165 kts 114°
2026-04-24 13:44 35.01648 -89.67950 4596 ft 161 kts 113°
2026-04-24 13:45 35.01369 -89.66641 4769 ft 158 kts 114°
2026-04-24 13:45 35.01092 -89.65356 4935 ft 156 kts 114°
2026-04-24 13:45 35.00816 -89.64080 5103 ft 155 kts 114°
2026-04-24 13:45 35.00541 -89.62811 5270 ft 155 kts 114°
2026-04-24 13:46 35.00269 -89.61546 5440 ft 154 kts 114°
2026-04-24 13:46 34.99998 -89.60289 5609 ft 153 kts 114°
2026-04-24 13:46 34.99732 -89.59052 5787 ft 153 kts 114°
2026-04-24 13:46 34.99452 -89.57769 5966 ft 156 kts 114°
2026-04-24 13:47 34.99175 -89.56492 6139 ft 155 kts 113°
2026-04-24 13:47 34.98905 -89.55252 6305 ft 152 kts 113°
2026-04-24 13:47 34.98637 -89.54011 6474 ft 151 kts 113°
2026-04-24 13:47 34.98371 -89.52778 6634 ft 150 kts 113°
2026-04-24 13:48 34.98104 -89.51552 6798 ft 149 kts 113°
2026-04-24 13:48 34.97840 -89.50332 6960 ft 149 kts 112°
2026-04-24 13:48 34.97565 -89.49087 6995 ft 156 kts 112°
2026-04-24 13:48 34.97278 -89.47782 7002 ft 162 kts 112°
2026-04-24 13:49 34.96985 -89.46441 7007 ft 165 kts 111°
2026-04-24 13:49 34.96689 -89.45075 7002 ft 168 kts 111°
2026-04-24 13:49 34.96390 -89.43698 7003 ft 168 kts 112°
2026-04-24 13:49 34.96089 -89.42319 6999 ft 169 kts 112°
2026-04-24 13:50 34.95789 -89.40938 7002 ft 169 kts 112°
2026-04-24 13:50 34.95488 -89.39558 7002 ft 168 kts 112°
2026-04-24 13:50 34.95187 -89.38178 7003 ft 169 kts 112°
2026-04-24 13:50 34.94884 -89.36795 7003 ft 169 kts 111°
2026-04-24 13:51 34.94580 -89.35406 7000 ft 170 kts 111°
2026-04-24 13:51 34.94276 -89.34013 7001 ft 170 kts 112°
2026-04-24 13:51 34.93971 -89.32618 7002 ft 170 kts 112°
2026-04-24 13:51 34.93665 -89.31226 7004 ft 170 kts 111°
2026-04-24 13:52 34.93362 -89.29837 7003 ft 170 kts 112°
2026-04-24 13:52 34.93058 -89.28451 7001 ft 169 kts 112°
2026-04-24 13:52 34.92755 -89.27072 7000 ft 168 kts 112°
2026-04-24 13:52 34.92454 -89.25697 6999 ft 168 kts 111°
2026-04-24 13:53 34.92152 -89.24325 6996 ft 168 kts 112°
2026-04-24 13:53 34.91850 -89.22955 6994 ft 167 kts 111°
2026-04-24 13:53 34.91548 -89.21582 7000 ft 169 kts 110°
2026-04-24 13:53 34.91317 -89.20152 6998 ft 173 kts 108°
2026-04-24 13:54 34.91053 -89.18736 6997 ft 171 kts 109°
2026-04-24 13:54 34.90793 -89.17324 7005 ft 172 kts 108°
2026-04-24 13:54 34.90538 -89.15899 6996 ft 171 kts 108°
2026-04-24 13:54 34.90289 -89.14482 6996 ft 171 kts 108°
2026-04-24 13:55 34.90044 -89.13072 6997 ft 170 kts 107°
2026-04-24 13:55 34.89810 -89.11665 6998 ft 170 kts 107°
2026-04-24 13:55 34.89573 -89.10255 6997 ft 170 kts 108°
2026-04-24 13:55 34.89334 -89.08845 6997 ft 170 kts 108°
2026-04-24 13:56 34.89095 -89.07435 7000 ft 170 kts 108°
2026-04-24 13:56 34.88856 -89.06024 6999 ft 170 kts 108°
2026-04-24 13:56 34.88618 -89.04616 7000 ft 170 kts 108°
2026-04-24 13:56 34.88379 -89.03205 7002 ft 170 kts 108°
2026-04-24 13:57 34.88138 -89.01795 7005 ft 171 kts 107°
2026-04-24 13:57 34.87901 -89.00398 7007 ft 171 kts 107°
2026-04-24 13:57 34.87660 -88.98977 7008 ft 171 kts 107°
2026-04-24 13:57 34.87422 -88.97561 7009 ft 171 kts 108°
2026-04-24 13:58 34.87178 -88.96149 7012 ft 170 kts 108°
2026-04-24 13:58 34.86936 -88.94742 7011 ft 170 kts 107°
2026-04-24 13:58 34.86700 -88.93337 7014 ft 169 kts 107°
2026-04-24 13:58 34.86461 -88.91931 7015 ft 170 kts 107°
2026-04-24 13:59 34.86218 -88.90516 7017 ft 171 kts 108°
2026-04-24 13:59 34.85976 -88.89097 7018 ft 171 kts 108°
2026-04-24 13:59 34.85734 -88.87686 7021 ft 170 kts 108°
2026-04-24 13:59 34.85494 -88.86277 7022 ft 170 kts 108°
2026-04-24 14:00 34.85252 -88.84870 7017 ft 169 kts 107°
2026-04-24 14:00 34.85012 -88.83468 7017 ft 169 kts 107°
2026-04-24 14:00 34.84772 -88.82073 7016 ft 168 kts 107°
2026-04-24 14:00 34.84533 -88.80676 7021 ft 169 kts 107°
2026-04-24 14:01 34.84291 -88.79275 7026 ft 169 kts 107°
2026-04-24 14:01 34.84050 -88.77870 7026 ft 169 kts 107°
2026-04-24 14:01 34.83810 -88.76471 7029 ft 169 kts 107°
2026-04-24 14:01 34.83569 -88.75071 7030 ft 169 kts 107°
2026-04-24 14:02 34.83327 -88.73668 7032 ft 170 kts 107°
2026-04-24 14:02 34.83084 -88.72259 7033 ft 170 kts 107°
2026-04-24 14:02 34.82841 -88.70849 7034 ft 170 kts 107°
2026-04-24 14:02 34.82598 -88.69436 7035 ft 171 kts 107°
2026-04-24 14:03 34.82354 -88.68025 7036 ft 171 kts 107°
2026-04-24 14:03 34.82110 -88.66616 7041 ft 170 kts 107°
2026-04-24 14:03 34.81864 -88.65198 7038 ft 171 kts 107°
2026-04-24 14:03 34.81620 -88.63789 7037 ft 170 kts 107°
2026-04-24 14:04 34.81376 -88.62384 7037 ft 170 kts 107°
2026-04-24 14:04 34.81132 -88.60981 7036 ft 169 kts 107°
2026-04-24 14:04 34.80892 -88.59574 7037 ft 171 kts 107°
2026-04-24 14:04 34.80647 -88.58180 7036 ft 171 kts 107°
2026-04-24 14:05 34.80398 -88.56748 7033 ft 171 kts 107°
2026-04-24 14:05 34.80157 -88.55359 7033 ft 170 kts 107°
2026-04-24 14:05 34.79913 -88.53950 7032 ft 170 kts 107°
2026-04-24 14:05 34.79667 -88.52545 7034 ft 170 kts 107°
2026-04-24 14:06 34.79420 -88.51133 7033 ft 171 kts 107°
2026-04-24 14:06 34.79175 -88.49717 7032 ft 171 kts 107°
2026-04-24 14:06 34.78928 -88.48300 7031 ft 171 kts 107°
2026-04-24 14:06 34.78680 -88.46886 7025 ft 170 kts 107°
2026-04-24 14:07 34.78434 -88.45479 7024 ft 170 kts 107°
2026-04-24 14:07 34.78189 -88.44076 7024 ft 170 kts 107°
2026-04-24 14:07 34.77943 -88.42672 7021 ft 170 kts 107°
2026-04-24 14:07 34.77697 -88.41269 7021 ft 170 kts 107°
2026-04-24 14:08 34.77450 -88.39862 7019 ft 170 kts 107°
2026-04-24 14:08 34.77204 -88.38454 7018 ft 170 kts 107°
2026-04-24 14:08 34.76955 -88.37044 7018 ft 171 kts 107°
2026-04-24 14:08 34.76708 -88.35628 7018 ft 171 kts 107°
2026-04-24 14:09 34.76459 -88.34211 7017 ft 171 kts 107°
2026-04-24 14:09 34.76209 -88.32793 7018 ft 171 kts 107°
2026-04-24 14:09 34.75960 -88.31377 7018 ft 171 kts 107°
2026-04-24 14:09 34.75709 -88.29959 7017 ft 171 kts 107°
2026-04-24 14:10 34.75545 -88.29021 7020 ft 172 kts 107°
2026-04-24 14:10 34.75206 -88.27107 7017 ft 173 kts 107°
2026-04-24 14:10 34.74957 -88.25681 7016 ft 172 kts 107°
2026-04-24 14:10 34.74705 -88.24263 7014 ft 171 kts 107°
2026-04-24 14:11 34.74540 -88.23328 7010 ft 171 kts 107°
2026-04-24 14:11 34.74290 -88.21916 7009 ft 171 kts 107°
2026-04-24 14:11 34.73792 -88.19105 7014 ft 170 kts 107°
2026-04-24 14:12 34.73541 -88.17690 7014 ft 171 kts 107°
2026-04-24 14:12 34.73290 -88.16274 7019 ft 171 kts 107°
2026-04-24 14:12 34.73100 -88.14839 7016 ft 174 kts 98°
2026-04-24 14:12 34.73024 -88.13377 7017 ft 173 kts 99°
2026-04-24 14:13 34.72929 -88.11919 7014 ft 174 kts 99°
2026-04-24 14:13 34.72833 -88.10455 7014 ft 174 kts 99°
2026-04-24 14:13 34.72739 -88.08985 7014 ft 175 kts 99°
2026-04-24 14:13 34.72644 -88.07505 7019 ft 176 kts 98°
2026-04-24 14:14 34.72551 -88.06019 7017 ft 176 kts 98°
2026-04-24 14:14 34.72458 -88.04541 7015 ft 175 kts 98°
2026-04-24 14:14 34.72271 -88.01602 7017 ft 174 kts 98°
2026-04-24 14:15 34.72177 -88.00145 7022 ft 173 kts 98°
2026-04-24 14:15 34.72116 -87.99182 7023 ft 172 kts 99°
2026-04-24 14:15 34.71993 -87.97239 7030 ft 173 kts 98°
2026-04-24 14:15 34.71898 -87.95778 7026 ft 173 kts 98°
2026-04-24 14:16 34.71804 -87.94326 7025 ft 172 kts 98°
2026-04-24 14:16 34.71710 -87.92876 7026 ft 172 kts 99°
2026-04-24 14:16 34.71617 -87.91428 7030 ft 172 kts 99°
2026-04-24 14:17 34.71429 -87.88517 7032 ft 173 kts 98°
2026-04-24 14:17 34.71333 -87.87061 7034 ft 172 kts 98°
2026-04-24 14:17 34.71145 -87.84152 7037 ft 172 kts 98°
2026-04-24 14:18 34.71051 -87.82700 7039 ft 173 kts 99°
2026-04-24 14:18 34.70955 -87.81245 7043 ft 172 kts 99°
2026-04-24 14:18 34.70858 -87.79793 7044 ft 172 kts 98°
2026-04-24 14:18 34.70795 -87.78835 7046 ft 172 kts 98°
2026-04-24 14:19 34.70671 -87.76898 7047 ft 172 kts 99°
2026-04-24 14:19 34.70573 -87.75454 7048 ft 171 kts 99°
2026-04-24 14:19 34.70479 -87.74010 7053 ft 172 kts 99°
2026-04-24 14:19 34.70381 -87.72551 7054 ft 174 kts 99°
2026-04-24 14:20 34.70282 -87.71086 7056 ft 174 kts 98°
2026-04-24 14:20 34.70187 -87.69624 7055 ft 174 kts 98°
2026-04-24 14:20 34.70088 -87.68164 7054 ft 173 kts 98°
2026-04-24 14:20 34.69994 -87.66709 7055 ft 172 kts 98°
2026-04-24 14:21 34.69900 -87.65274 7056 ft 173 kts 98°
2026-04-24 14:21 34.69799 -87.63794 7055 ft 173 kts 98°
2026-04-24 14:21 34.69702 -87.62355 7056 ft 173 kts 98°
2026-04-24 14:21 34.69605 -87.60892 7041 ft 175 kts 98°
2026-04-24 14:22 34.69504 -87.59410 7004 ft 176 kts 98°
2026-04-24 14:22 34.69406 -87.57937 7003 ft 174 kts 98°
2026-04-24 14:22 34.69209 -87.55014 7003 ft 173 kts 98°
2026-04-24 14:23 34.69112 -87.53560 7001 ft 172 kts 98°
2026-04-24 14:23 34.69011 -87.52112 7001 ft 172 kts 98°
2026-04-24 14:23 34.68913 -87.50663 6999 ft 172 kts 98°
2026-04-24 14:23 34.68815 -87.49215 6998 ft 172 kts 98°
2026-04-24 14:24 34.68716 -87.47766 6997 ft 172 kts 98°
2026-04-24 14:24 34.68617 -87.46317 6996 ft 172 kts 98°
2026-04-24 14:24 34.68517 -87.44866 6995 ft 172 kts 98°
2026-04-24 14:24 34.68419 -87.43416 6995 ft 172 kts 98°
2026-04-24 14:25 34.68318 -87.41963 6994 ft 173 kts 98°
2026-04-24 14:25 34.68219 -87.40506 6993 ft 173 kts 98°
2026-04-24 14:25 34.68118 -87.39051 6995 ft 173 kts 98°
2026-04-24 14:25 34.68017 -87.37593 6995 ft 173 kts 98°
2026-04-24 14:26 34.67915 -87.36131 6994 ft 174 kts 98°
2026-04-24 14:26 34.67815 -87.34673 6993 ft 173 kts 98°
2026-04-24 14:26 34.67712 -87.33192 6850 ft 179 kts 98°
2026-04-24 14:26 34.67610 -87.31718 6650 ft 170 kts 99°
2026-04-24 14:27 34.67514 -87.30316 6452 ft 164 kts 99°
2026-04-24 14:27 34.67419 -87.28945 6247 ft 162 kts 99°
2026-04-24 14:27 34.67351 -87.27586 6034 ft 163 kts 90°
2026-04-24 14:27 34.67620 -87.26241 5825 ft 164 kts 77°
2026-04-24 14:28 34.67948 -87.24924 5627 ft 163 kts 77°
2026-04-24 14:28 34.68283 -87.23602 5431 ft 164 kts 77°
2026-04-24 14:28 34.68625 -87.22280 5238 ft 165 kts 77°
2026-04-24 14:28 34.68969 -87.20952 5040 ft 164 kts 77°
2026-04-24 14:29 34.69312 -87.19623 4841 ft 166 kts 77°
2026-04-24 14:29 34.69667 -87.18286 4660 ft 167 kts 77°
2026-04-24 14:29 34.70033 -87.16942 4469 ft 168 kts 77°
2026-04-24 14:29 34.70397 -87.15583 4280 ft 170 kts 77°
2026-04-24 14:30 34.70639 -87.14671 4153 ft 172 kts 77°
2026-04-24 14:30 34.71133 -87.12844 3927 ft 172 kts 77°
2026-04-24 14:30 34.71500 -87.11454 3768 ft 174 kts 77°
2026-04-24 14:30 34.71868 -87.10033 3593 ft 175 kts 77°
2026-04-24 14:31 34.72238 -87.08640 3427 ft 175 kts 77°
2026-04-24 14:31 34.72584 -87.07236 3265 ft 173 kts 80°
2026-04-24 14:31 34.72899 -87.05815 3089 ft 173 kts 81°
2026-04-24 14:31 34.73210 -87.04399 2917 ft 174 kts 80°
2026-04-24 14:32 34.73528 -87.02974 2748 ft 175 kts 81°
2026-04-24 14:32 34.73852 -87.01528 2571 ft 175 kts 79°
2026-04-24 14:32 34.74148 -87.00121 2407 ft 174 kts 82°
2026-04-24 14:32 34.74334 -86.98674 2222 ft 172 kts 87°
2026-04-24 14:33 34.74482 -86.97254 2052 ft 167 kts 86°
2026-04-24 14:33 34.74601 -86.95881 2023 ft 159 kts 88°
2026-04-24 14:33 34.74729 -86.94555 2017 ft 157 kts 86°
2026-04-24 14:33 34.74864 -86.93249 2009 ft 155 kts 86°
2026-04-24 14:34 34.75002 -86.91920 2011 ft 162 kts 87°
2026-04-24 14:34 34.75131 -86.90541 2013 ft 165 kts 87°
2026-04-24 14:34 34.75259 -86.89147 2020 ft 167 kts 87°
2026-04-24 14:34 34.75385 -86.87730 2026 ft 170 kts 86°
2026-04-24 14:35 34.75500 -86.86298 2024 ft 170 kts 88°
2026-04-24 14:35 34.75545 -86.84872 2023 ft 167 kts 96°
2026-04-24 14:35 34.75463 -86.83472 2018 ft 165 kts 97°
2026-04-24 14:35 34.75396 -86.82069 2018 ft 168 kts 96°
2026-04-24 14:36 34.75320 -86.80656 2019 ft 167 kts 96°
2026-04-24 14:36 34.75244 -86.79252 2004 ft 165 kts 97°
2026-04-24 14:36 34.75091 -86.77892 1997 ft 160 kts 117°
2026-04-24 14:36 34.74517 -86.76739 2003 ft 160 kts 128°
2026-04-24 14:37 34.73704 -86.75900 2000 ft 151 kts 168°
2026-04-24 14:37 34.72778 -86.76067 1998 ft 127 kts 214°
2026-04-24 14:37 34.72017 -86.76478 1952 ft 118 kts 189°
2026-04-24 14:37 34.71198 -86.76461 1789 ft 120 kts 178°
2026-04-24 14:38 34.70374 -86.76456 1628 ft 116 kts 184°
2026-04-24 14:38 34.69565 -86.76485 1481 ft 115 kts 183°
2026-04-24 14:38 34.68835 -86.76489 1335 ft 99 kts 181°
2026-04-24 14:38 34.68172 -86.76495 1223 ft 94 kts 185°
2026-04-24 14:39 34.67515 -86.76520 1122 ft 90 kts 184°
2026-04-24 14:39 34.66920 -86.76521 991 ft 82 kts 185°
2026-04-24 14:39 34.66380 -86.76530 878 ft 75 kts 182°
2026-04-24 14:39 34.65866 -86.76538 778 ft 73 kts 185°
2026-04-24 14:40 34.65369 -86.76545 687 ft 71 kts 184°
2026-04-24 14:40 34.64877 -86.76558 633 ft 68 kts 186°
2026-04-24 14:40 34.64476 -86.76567 617 ft 44 kts 179°
2026-04-24 14:40 34.64275 -86.76570 618 ft 17 kts 180°
2026-04-24 14:41 34.64158 -86.76533 620 ft 22 kts 111°
2026-04-24 14:41 34.64155 -86.76433 616 ft 0 kts 90°
2026-04-24 14:41 34.64156 -86.76400 617 ft 10 kts 89°
2026-04-24 14:42 34.64195 -86.76346 622 ft 16 kts 32°
2026-04-24 14:42 34.64205 -86.76232 617 ft 3 kts 91°